Weather History for MMZC - October, 2013

Change the Weather History Date:

Thursday, October 31, 2013

  Actual Average Record
Temperature  
Mean Temperature 65 °F -  
Max Temperature 75 °F 72 °F 78 °F (1996)
Min Temperature 53 °F 40 °F 28 °F (2007)
Growing Degree Days 15 (Base 50)    
Moisture  
Dew Point 53 °F    
Average Humidity 75    
Maximum Humidity 88    
Minimum Humidity 41    
Precipitation  
Precipitation 0.00 in - - ()
Sea Level Pressure  
Sea Level Pressure 30.25 in    
Wind  
Wind Speed 5 mph ()    
Max Wind Speed 16 mph    
Max Gust Speed -    
Visibility 9.6 miles    
Events Rain    
Averages and records for this station are not official NWS values.
T = Trace of Precipitation, MM = Missing Value Source: Averaged Metar Reports

Daily Weather History Graph

Daily Weather History Graph

Search for Another Location

Airport or City:

Trip Planner

Search our weather history database for the weather conditions in past years. The results will help you decide how hot, cold, wet, or windy it might be!

Date:

Astronomy

Oct. 31, 2013 Rise Set
Actual Time 6:55 AM CST 6:13 PM CST
Civil Twilight 6:32 AM CST 6:36 PM CST
Nautical Twilight 6:05 AM CST 7:02 PM CST
Astronomical Twilight 5:39 AM CST 7:29 PM CST
Moon 4:06 AM CST (10/31) 4:16 PM CST (10/31)
Length of Visible Light 12h 04m
Length of Day
11h 17m
Waning Crescent, 9% of the Moon is Illuminated
Oct 31
Waning Crescent
Nov 3
New
Nov 9
First Quarter
Nov 17
Full
Nov 25
Last Quarter

Hourly Weather History & Observations

Time (CST) Temp. Dew Point Humidity Pressure Visibility Wind Dir Wind Speed Gust Speed Precip Events Conditions
12:40 AM 59.0 °F 53.6 °F 82% 30.26 in 10.0 mi SSW 5.8 mph - N/A   Mostly Cloudy
1:42 AM 59.0 °F 53.6 °F 82% 30.25 in 10.0 mi SSW 6.9 mph - N/A   Mostly Cloudy
2:40 AM 57.2 °F 53.6 °F 88% 30.24 in 10.0 mi SSW 6.9 mph - N/A   Mostly Cloudy
3:40 AM 57.2 °F 53.6 °F 88% 30.23 in 10.0 mi Calm Calm - N/A   Scattered Clouds
4:40 AM 59.0 °F 53.6 °F 82% 30.23 in 10.0 mi South 6.9 mph - N/A   Scattered Clouds
5:41 AM 57.2 °F 53.6 °F 88% 30.23 in 10.0 mi Calm Calm - N/A   Scattered Clouds
6:41 AM 57.2 °F 53.6 °F 88% 30.25 in 8.0 mi SSW 4.6 mph - N/A   Mostly Cloudy
7:40 AM 57.2 °F 53.6 °F 88% 30.28 in 7.0 mi South 3.5 mph - N/A   Overcast
8:41 AM 62.6 °F 55.4 °F 77% 30.29 in 9.0 mi West 3.5 mph - N/A   Overcast
9:50 AM 62.6 °F 53.6 °F 72% 30.31 in 10.0 mi West 5.8 mph - N/A   Overcast
10:51 AM 66.2 °F 53.6 °F 64% 30.31 in 10.0 mi NW 5.8 mph - N/A   Mostly Cloudy
11:41 AM 68.0 °F 51.8 °F 56% 30.28 in 10.0 mi WSW 8.1 mph - N/A   Mostly Cloudy
12:52 PM 71.6 °F 53.6 °F 53% 30.25 in 10.0 mi WNW 12.7 mph - N/A   Mostly Cloudy
1:40 PM 75.2 °F 51.8 °F 44% 30.22 in 10.0 mi WNW 16.1 mph - N/A   Mostly Cloudy
2:50 PM 75.2 °F 50.0 °F 41% 30.20 in 10.0 mi West 10.4 mph - N/A   Mostly Cloudy
3:40 PM 73.4 °F 50.0 °F 44% 30.19 in 10.0 mi West 11.5 mph - N/A   Mostly Cloudy
4:41 PM 64.4 °F 55.4 °F 73% 30.20 in 8.0 mi SSW 6.9 mph - N/A Rain Light Rain
5:57 PM 60.8 °F 55.4 °F 82% 30.23 in 8.0 mi SSW 11.5 mph - N/A Rain Light Rain
6:48 PM 59.0 °F 55.4 °F 88% 30.23 in 10.0 mi South 6.9 mph - N/A   Mostly Cloudy
8:40 PM 55.4 °F 51.8 °F 88% 30.26 in 10.0 mi SSW 5.8 mph - N/A   Scattered Clouds
9:51 PM 55.4 °F 51.8 °F 88% 30.28 in 10.0 mi South 4.6 mph - N/A   Scattered Clouds
10:41 PM 55.4 °F 50.0 °F 82% 30.28 in 10.0 mi Calm Calm - N/A   Scattered Clouds
11:42 PM 53.6 °F 48.2 °F 82% 30.28 in 10.0 mi Calm Calm - N/A   Scattered Clouds